Total_Precipitation_Accumulation
0.23 0.25 0.28 0.25 0.25 0.26 0.29 0.41 0.57 0.40 0.10 0.02 0.04 0.06 0.10 0.15 0.20 0.21 0.22 0.23 0.26 0.31 0.36 0.37 0.41 0.54 0.84 1.43 2.38 3.35 3.49 2.74 1.84 1.26 1.10 1.34 1.59 1.88
0.28 0.31 0.33 0.35 0.35 0.33 0.33 0.36 0.45 0.52 0.30 0.05 0.04 0.08 0.13 0.17 0.22 0.20 0.22 0.25 0.24 0.25 0.28 0.32 0.35 0.45 0.63 0.92 1.49 2.36 3.18 3.35 2.76 1.98 1.50 1.44 1.58 1.76
0.32 0.39 0.43 0.46 0.50 0.48 0.46 0.42 0.40 0.44 0.42 0.11 0.03 0.05 0.14 0.20 0.21 0.21 0.23 0.22 0.19 0.20 0.23 0.27 0.31 0.39 0.52 0.72 1.02 1.58 2.37 3.05 3.21 2.77 2.26 1.88 1.73 1.68
0.42 0.43 0.46 0.50 0.56 0.58 0.59 0.53 0.43 0.37 0.39 0.25 0.07 0.05 0.11 0.21 0.27 0.26 0.25 0.23 0.20 0.20 0.23 0.26 0.29 0.35 0.45 0.60 0.79 1.10 1.68 2.32 2.85 2.96 2.66 2.21 1.92 1.87
0.68 0.68 0.63 0.58 0.60 0.60 0.63 0.60 0.51 0.41 0.37 0.33 0.17 0.09 0.11 0.20 0.33 0.36 0.32 0.28 0.23 0.23 0.24 0.25 0.27 0.31 0.36 0.46 0.61 0.81 1.09 1.52 2.01 2.59 2.79 2.55 2.17 2.00
0.74 0.79 0.80 0.82 0.77 0.72 0.70 0.66 0.61 0.56 0.47 0.43 0.30 0.18 0.16 0.21 0.38 0.46 0.40 0.33 0.30 0.27 0.28 0.26 0.28 0.29 0.30 0.31 0.35 0.51 0.76 1.14 1.57 2.06 2.54 2.64 2.36 2.12
0.53 0.57 0.67 0.82 0.90 0.94 0.98 0.88 0.81 0.82 0.72 0.61 0.49 0.35 0.28 0.32 0.44 0.50 0.56 0.49 0.42 0.37 0.35 0.29 0.27 0.24 0.24 0.27 0.32 0.41 0.55 0.74 1.04 1.47 1.94 2.31 2.37 2.22
0.36 0.36 0.39 0.55 0.66 0.76 0.89 0.90 0.95 1.07 1.09 0.95 0.72 0.54 0.38 0.37 0.45 0.58 0.70 0.74 0.62 0.43 0.44 0.41 0.36 0.33 0.26 0.23 0.25 0.30 0.39 0.55 0.72 1.01 1.38 1.80 2.07 2.20
0.21 0.21 0.23 0.32 0.42 0.47 0.56 0.65 0.75 0.90 1.08 1.14 1.05 0.76 0.54 0.42 0.53 0.65 0.69 0.74 0.66 0.57 0.60 0.67 0.59 0.49 0.38 0.34 0.34 0.31 0.34 0.41 0.54 0.72 0.98 1.35 1.69 1.94
0.15 0.14 0.12 0.17 0.30 0.42 0.52 0.54 0.54 0.66 0.94 1.16 1.29 1.11 0.86 0.71 0.77 0.87 0.89 0.84 0.77 0.78 0.81 0.93 0.86 0.71 0.59 0.49 0.41 0.35 0.34 0.36 0.44 0.56 0.73 1.00 1.35 1.65
0.14 0.15 0.11 0.09 0.23 0.35 0.38 0.36 0.33 0.42 0.58 0.84 1.02 1.04 0.96 0.95 0.98 1.15 1.21 1.12 1.07 1.06 1.02 1.08 1.12 1.02 0.89 0.78 0.61 0.47 0.40 0.39 0.41 0.50 0.58 0.75 1.04 1.44
0.11 0.12 0.16 0.18 0.25 0.28 0.26 0.27 0.30 0.33 0.34 0.41 0.50 0.59 0.69 0.77 0.95 1.19 1.28 1.21 1.20 1.32 1.19 1.09 1.26 1.31 1.37 1.17 0.85 0.55 0.45 0.47 0.47 0.50 0.55 0.63 0.84 1.14
0.15 0.15 0.15 0.19 0.21 0.21 0.22 0.23 0.30 0.28 0.25 0.32 0.37 0.41 0.50 0.63 0.78 1.02 1.25 1.32 1.30 1.32 1.19 1.09 1.29 1.27 1.31 1.34 1.13 0.80 0.51 0.45 0.49 0.56 0.62 0.64 0.72 0.83
0.17 0.14 0.14 0.14 0.15 0.16 0.18 0.22 0.22 0.22 0.29 0.32 0.31 0.34 0.42 0.54 0.67 0.86 1.07 1.22 1.25 1.25 1.13 1.04 1.23 1.19 1.07 1.06 1.13 1.06 0.77 0.55 0.46 0.48 0.54 0.73 0.84 0.83
0.25 0.21 0.13 0.12 0.13 0.12 0.14 0.18 0.20 0.24 0.32 0.33 0.28 0.27 0.35 0.48 0.57 0.68 0.82 1.00 1.12 1.18 1.18 1.10 1.16 1.21 1.12 1.01 0.92 0.93 0.92 0.82 0.59 0.51 0.54 0.61 0.68 0.74
0.22 0.18 0.12 0.12 0.11 0.09 0.08 0.10 0.14 0.20 0.24 0.26 0.24 0.23 0.26 0.37 0.49 0.61 0.74 0.88 1.03 1.11 1.17 1.23 1.30 1.42 1.35 1.10 0.94 0.84 0.76 0.86 0.75 0.56 0.56 0.62 0.62 0.56
0.24 0.19 0.14 0.13 0.14 0.13 0.10 0.07 0.08 0.13 0.17 0.19 0.21 0.23 0.26 0.33 0.42 0.53 0.71 0.83 0.96 1.03 1.17 1.37 1.47 1.52 1.56 1.47 1.30 0.98 0.75 0.68 0.67 0.57 0.59 0.71 0.78 0.66
0.26 0.24 0.17 0.13 0.12 0.11 0.10 0.08 0.07 0.09 0.11 0.14 0.19 0.23 0.26 0.33 0.39 0.47 0.62 0.79 0.90 0.97 1.08 1.29 1.47 1.58 1.74 1.86 1.66 1.21 0.88 0.76 0.74 0.66 0.60 0.68 0.84 0.80
0.21 0.18 0.13 0.11 0.10 0.10 0.09 0.09 0.07 0.06 0.09 0.13 0.16 0.19 0.23 0.28 0.35 0.42 0.52 0.66 0.81 0.93 1.03 1.15 1.33 1.47 1.59 1.78 1.91 1.55 1.11 0.90 0.88 0.88 0.78 0.66 0.70 0.77
0.13 0.13 0.12 0.11 0.11 0.11 0.10 0.09 0.09 0.09 0.11 0.12 0.12 0.14 0.19 0.24 0.30 0.35 0.43 0.57 0.71 0.84 0.96 1.06 1.21 1.34 1.37 1.36 1.49 1.64 1.51 1.12 0.94 0.96 0.94 0.86 0.85 0.96
0.10 0.10 0.11 0.12 0.12 0.11 0.11 0.10 0.10 0.10 0.09 0.10 0.11 0.12 0.15 0.20 0.25 0.30 0.37 0.47 0.62 0.74 0.84 0.95 1.09 1.21 1.33 1.28 1.22 1.32 1.53 1.52 1.14 0.90 0.87 0.93 1.06 1.11
0.10 0.10 0.11 0.11 0.12 0.12 0.12 0.11 0.11 0.10 0.09 0.10 0.09 0.09 0.11 0.16 0.21 0.26 0.33 0.40 0.51 0.63 0.74 0.85 0.99 1.18 1.36 1.41 1.32 1.22 1.36 1.58 1.60 1.29 1.01 0.84 0.83 0.83
0.13 0.12 0.12 0.12 0.12 0.12 0.12 0.11 0.10 0.08 0.07 0.08 0.08 0.08 0.09 0.12 0.15 0.20 0.26 0.34 0.43 0.54 0.68 0.82 0.95 1.13 1.33 1.42 1.39 1.24 1.19 1.33 1.47 1.44 1.41 1.17 0.81 0.56